ニート彗星

215P/NEAT (2010)

English version
Home page
Updated on September 25, 2011

---------------------------------------------------------------------

・ プロフィール

符号 215P/2009 B5
検出日 2009年1月22日
検出光度 20.3等
検出者 G. Hug (Scranton, KS, U.S.A.)

・ 軌道要素

The following orbital elements are taken from MPC 75726:

Epoch 2010 June 13.0 TT = JDT 2455360.5
T 2010 June 8.0388 TT                                   MPC
q   3.213378             (2000.0)            P               Q
n   0.1221768      Peri.  222.4527      +0.4516218      +0.8660984
a   4.022322       Node    75.4409      -0.7475860      +0.4984224
e   0.201114       Incl.   12.7900      -0.4869835      +0.0380614
P   8.07
From 149 observations 1994-2010, mean residual 0".6.

・ 星図

・ 光度変化

        m1 = 4.5 + 5 logΔ + 21.0 log r(t - 180)

---------------------------------------------------------------------

軌道要素はMPCのEphemerides and Orbital Elementsに掲載されたものです。
星図はステラナビゲータ Ver.8 (アストロアーツ) で作成したものです。
光度グラフはComet for Windowsで作成したものです。

---------------------------------------------------------------------

Copyright(C) Seiichi Yoshida (comet@aerith.net). All rights reserved.